FW0743 Weather Reports


time (UTC)temp
C
wind
direction
speed
KPH
gust
KPH
rain 1hr
cm
rain 24hr
cm
rain mn
cm
humidity
%
barometer
mb
20260506114514 4 18 3.2 14.5 0.20 2.49 0.91 97 1008.8
20260506113022 4 44 3.2 11.3 0.23 2.44 0.86 97 1008.8
20260506111528 5 13 3.2 11.3 0.18 2.39 0.81 97 1009.2
20260506110008 5 28 1.6 6.4 0.13 2.31 0.74 97 1009.3
20260506104512 5 41 3.2 8.0 0.10 2.29 0.71 97 1009.2
20260506103022 5 342 3.2 8.0 0.05 2.21 0.64 97 1009.1
20260506101524 5 22 1.6 8.0 0.10 2.21 0.64 97 1008.8
20260506100006 5 51 1.6 9.7 0.10 2.18 0.61 97 1008.8
20260506094510 5 53 1.6 4.8 0.13 2.18 0.61 97 1009.0
20260506093027 5 5 1.6 4.8 0.13 2.16 0.58 96 1009.4
20260506091520 5 37 1.6 6.4 0.10 2.11 0.53 96 1009.6
20260506090024 5 36 1.6 6.4 0.10 2.08 0.51 96 1009.5
20260506084511 5 77 0.0 4.8 0.10 2.06 0.48 96 1009.5
20260506083012 5 101 1.6 11.3 0.10 2.03 0.46 96 1009.7
20260506081516 5 45 3.2 9.7 0.15 2.01 0.43 96 1009.6
20260506073011 5 338 3.2 9.7 0.13 1.93 0.36 96 1010.1
20260506071515 5 11 4.8 11.3 0.08 1.85 0.28 96 1009.7
20260506061510 5 53 1.6 6.4 0.05 1.78 0.20 96 1010.0
20260506044519 6 40 0.0 6.4 0.15 1.70 0.13 96 1011.4
20260506043022 6 86 0.0 4.8 0.15 1.65 0.08 96 1010.7
20260506041525 6 235 0.0 3.2 0.15 1.63 0.05 96 1011.0
20260506040026 6 96 0.0 3.2 0.15 1.57 0.00 96 1010.6
20260506034516 6 121 1.6 6.4 0.18 1.55 1.55 96 1010.8
20260506033004 6 123 0.0 3.2 0.18 1.47 1.47 96 1010.6
20260506031503 6 123 0.0 3.2 0.20 1.47 1.47 96 1011.1
20260506030009 6 153 1.6 3.2 0.20 1.42 1.42 96 1011.4
20260506024513 6 65 3.2 4.8 0.20 1.37 1.37 95 1010.8
20260506023020 6 78 0.0 3.2 0.20 1.32 1.32 95 1011.4
20260506021504 6 78 1.6 3.2 0.23 1.27 1.27 95 1010.7
20260506020008 6 78 1.6 3.2 0.20 1.22 1.22 95 1010.8
20260506014511 6 78 0.0 4.8 0.18 1.17 1.17 95 1010.9
20260506013016 6 92 1.6 4.8 0.15 1.12 1.12 94 1010.6
20260506011525 6 26 0.0 6.4 0.20 1.04 1.04 94 1010.6
20260506010004 6 360 4.8 9.7 0.30 1.02 1.02 93 1010.6
20260506004519 6 5 3.2 6.4 0.28 0.99 0.99 92 1010.9
20260506003012 7 56 6.4 20.9 0.25 0.97 0.97 90 1010.0
20260506001516 8 5 6.4 20.9 0.13 0.84 0.84 85 1010.5
20260506000034 10 350 14.5 32.2 0.00 0.71 0.71 73 1009.8
20260505234511 11 9 11.3 32.2 0.00 0.71 0.71 70 1009.1
20260505233011 12 315 14.5 25.7 0.00 0.71 0.71 68 1008.7
20260505231516 12 318 17.7 27.4 0.00 0.71 0.71 67 1008.3
20260505230032 13 319 4.8 27.4 0.00 0.71 0.71 68 1008.1
20260505224524 13 312 12.9 22.5 0.00 0.71 0.71 64 1007.8
20260505223009 14 9 6.4 27.4 0.00 0.71 0.71 63 1007.4
20260505221512 15 323 8.0 22.5 0.00 0.71 0.71 63 1007.1
20260505220018 15 327 4.8 16.1 0.00 0.71 0.71 65 1006.8
20260505214524 15 355 11.3 20.9 0.00 0.71 0.71 66 1006.7
20260505213028 15 298 11.3 22.5 0.00 0.71 0.71 69 1006.5
20260505211516 15 5 9.7 27.4 0.00 0.71 0.71 72 1006.4
20260505210017 16 19 8.0 27.4 0.00 0.71 0.71 69 1006.0
20260505204521 17 360 11.3 24.1 0.00 0.71 0.71 63 1005.5
20260505203023 18 309 6.4 27.4 0.00 0.71 0.71 63 1005.1
20260505201510 19 330 9.7 16.1 0.00 0.71 0.71 62 1005.3
20260505200012 18 316 3.2 9.7 0.03 0.71 0.71 67 1005.3
20260505194520 19 321 3.2 9.7 0.03 0.71 0.71 66 1005.4
20260505193023 18 49 3.2 8.0 0.03 0.71 0.71 74 1005.5
20260505191533 17 287 3.2 6.4 0.03 0.71 0.71 79 1005.5
20260505190011 17 134 1.6 8.0 0.00 0.69 0.69 81 1005.7
20260505184516 17 244 1.6 14.5 0.00 0.69 0.69 80 1005.7
20260505183023 16 318 3.2 11.3 0.61 0.69 0.69 85 1005.7
20260505181503 15 341 3.2 12.9 0.69 0.69 0.69 84 1005.3
20260505180008 15 285 4.8 20.9 0.69 0.69 0.69 86 1005.1
20260505174518 15 306 4.8 14.5 0.69 0.69 0.69 85 1005.2
20260505173022 18 296 8.0 19.3 0.08 0.08 0.08 66 1005.5
20260505171532 20 260 4.8 27.4 0.00 0.00 0.00 54 1004.2
20260505170008 21 275 6.4 17.7 0.00 0.00 0.00 53 1004.1
20260505164512 20 288 6.4 29.0 0.00 0.00 0.00 52 1004.3
20260505163019 20 246 8.0 30.6 0.00 0.00 0.00 52 1004.3
20260505161523 20 327 3.2 24.1 0.00 0.00 0.00 54 1004.2
20260505153031 20 274 19.3 33.8 0.00 0.00 0.00 54 1004.4
20260505151523 20 280 14.5 29.0 0.00 0.00 0.00 54 1004.4
20260505124527 18 184 8.0 30.6 0.00 0.00 0.00 59 1004.1
20260505123041 18 258 11.3 25.7 0.00 0.00 0.00 61 1004.0
20260505121514 17 226 8.0 24.1 0.00 0.00 0.00 62 1004.1
20260505120021 16 264 9.7 22.5 0.00 0.00 0.00 65 1004.0